QPF
0.00 0.00 0.00 0.00 0.00 0.00 0.00 0.00 0.00 0.00 0.00 0.00 0.00 0.00 0.00 0.00 0.00 0.00 0.00 0.00 0.00 0.00 0.00 0.00 0.00 0.00 0.00 0.00 0.00 0.00 0.00 0.00 0.00 0.00 0.01 0.07 0.07 0.05 0.04 0.04 0.02 0.00 0.00 0.00 0.00 0.00 0.00
0.00 0.00 0.00 0.00 0.00 0.00 0.00 0.00 0.00 0.00 0.00 0.00 0.00 0.00 0.00 0.00 0.00 0.00 0.00 0.00 0.00 0.00 0.00 0.00 0.00 0.00 0.00 0.00 0.00 0.00 0.00 0.00 0.00 0.00 0.00 0.08 0.10 0.06 0.03 0.02 0.01 0.01 0.01 0.00 0.00 0.00 0.00
0.00 0.00 0.00 0.00 0.00 0.00 0.00 0.00 0.00 0.00 0.00 0.00 0.00 0.00 0.00 0.00 0.00 0.00 0.00 0.00 0.00 0.00 0.00 0.00 0.00 0.00 0.00 0.00 0.00 0.00 0.00 0.00 0.00 0.00 0.00 0.02 0.02 0.03 0.05 0.01 0.00 0.00 0.00 0.00 0.00 0.00 0.00
0.00 0.00 0.00 0.00 0.00 0.00 0.00 0.00 0.00 0.00 0.00 0.00 0.00 0.00 0.00 0.00 0.00 0.00 0.00 0.00 0.00 0.00 0.00 0.00 0.00 0.00 0.00 0.00 0.00 0.00 0.00 0.00 0.00 0.00 0.00 0.01 0.01 0.00 0.01 0.00 0.00 0.00 0.00 0.00 0.00 0.00 0.00
0.00 0.00 0.00 0.00 0.00 0.00 0.00 0.00 0.00 0.00 0.00 0.00 0.00 0.00 0.00 0.00 0.00 0.00 0.00 0.00 0.00 0.00 0.00 0.00 0.00 0.00 0.00 0.00 0.00 0.00 0.00 0.00 0.00 0.00 0.00 0.00 0.00 0.00 0.00 0.00 0.00 0.00 0.00 0.01 0.00 0.00 0.00
0.00 0.00 0.00 0.00 0.00 0.00 0.00 0.00 0.00 0.00 0.00 0.00 0.00 0.00 0.00 0.00 0.00 0.00 0.00 0.00 0.00 0.00 0.00 0.00 0.00 0.00 0.00 0.00 0.00 0.00 0.00 0.00 0.00 0.00 0.00 0.00 0.01 0.03 0.02 0.00 0.00 0.00 0.00 0.00 0.00 0.00 0.00
0.00 0.00 0.00 0.00 0.00 0.00 0.00 0.00 0.00 0.00 0.00 0.00 0.00 0.00 0.00 0.00 0.00 0.00 0.00 0.00 0.00 0.00 0.00 0.00 0.00 0.00 0.00 0.00 0.00 0.00 0.00 0.00 0.00 0.00 0.00 0.00 0.01 0.02 0.00 0.00 0.00 0.00 0.00 0.00 0.00 0.00 0.00
0.00 0.00 0.00 0.00 0.00 0.00 0.00 0.00 0.00 0.00 0.00 0.00 0.00 0.00 0.00 0.00 0.00 0.00 0.00 0.00 0.00 0.00 0.00 0.00 0.00 0.00 0.00 0.00 0.00 0.00 0.00 0.00 0.00 0.00 0.00 0.00 0.00 0.01 0.01 0.00 0.00 0.00 0.00 0.00 0.00 0.00 0.00
0.00 0.00 0.00 0.00 0.00 0.00 0.00 0.00 0.00 0.00 0.00 0.00 0.00 0.00 0.00 0.00 0.00 0.00 0.00 0.00 0.00 0.00 0.00 0.00 0.00 0.00 0.00 0.00 0.00 0.00 0.00 0.00 0.00 0.00 0.00 0.00 0.00 0.01 0.01 0.00 0.00 0.00 0.00 0.00 0.00 0.00 0.00
0.00 0.00 0.00 0.00 0.00 0.00 0.00 0.00 0.00 0.00 0.00 0.00 0.00 0.00 0.00 0.00 0.00 0.00 0.00 0.00 0.00 0.00 0.00 0.00 0.00 0.00 0.00 0.00 0.00 0.00 0.00 0.00 0.00 0.00 0.00 0.00 0.00 0.00 0.00 0.00 0.00 0.00 0.00 0.00 0.00 0.00 0.00
0.00 0.00 0.00 0.00 0.00 0.00 0.00 0.00 0.00 0.00 0.00 0.00 0.00 0.00 0.00 0.00 0.00 0.00 0.00 0.00 0.00 0.00 0.00 0.00 0.00 0.00 0.00 0.00 0.00 0.00 0.00 0.00 0.00 0.00 0.00 0.00 0.00 0.00 0.00 0.00 0.00 0.00 0.00 0.00 0.00 0.00 0.00
0.00 0.00 0.00 0.00 0.00 0.00 0.00 0.00 0.00 0.00 0.00 0.00 0.00 0.00 0.00 0.00 0.00 0.00 0.00 0.00 0.00 0.00 0.00 0.00 0.00 0.00 0.00 0.00 0.00 0.00 0.00 0.00 0.00 0.00 0.00 0.00 0.00 0.00 0.00 0.00 0.00 0.00 0.00 0.00 0.00 0.00 0.00
0.00 0.00 0.00 0.00 0.00 0.00 0.00 0.00 0.00 0.00 0.00 0.00 0.00 0.00 0.00 0.00 0.00 0.00 0.00 0.00 0.00 0.00 0.00 0.00 0.00 0.00 0.00 0.00 0.00 0.00 0.00 0.00 0.00 0.00 0.00 0.00 0.00 0.00 0.00 0.00 0.00 0.00 0.00 0.00 0.00 0.00 0.00
0.00 0.00 0.00 0.00 0.00 0.00 0.00 0.00 0.00 0.00 0.00 0.00 0.00 0.00 0.00 0.00 0.00 0.00 0.00 0.00 0.00 0.00 0.00 0.00 0.00 0.00 0.00 0.00 0.00 0.00 0.00 0.00 0.00 0.00 0.00 0.00 0.00 0.00 0.00 0.00 0.00 0.00 0.00 0.00 0.00 0.00 0.00
0.00 0.00 0.00 0.00 0.00 0.00 0.00 0.00 0.00 0.00 0.00 0.00 0.00 0.00 0.00 0.00 0.00 0.00 0.00 0.00 0.00 0.00 0.00 0.00 0.00 0.00 0.00 0.00 0.00 0.00 0.00 0.00 0.00 0.00 0.00 0.00 0.00 0.00 0.00 0.00 0.00 0.00 0.00 0.00 0.00 0.00 0.00
0.00 0.00 0.00 0.00 0.00 0.00 0.00 0.00 0.00 0.00 0.00 0.00 0.00 0.00 0.00 0.00 0.00 0.00 0.00 0.00 0.00 0.00 0.00 0.00 0.00 0.00 0.00 0.00 0.00 0.00 0.00 0.00 0.00 0.00 0.00 0.00 0.00 0.00 0.00 0.00 0.00 0.00 0.00 0.00 0.00 0.00 0.00
0.00 0.00 0.00 0.00 0.00 0.00 0.00 0.00 0.00 0.00 0.00 0.00 0.00 0.00 0.00 0.00 0.00 0.00 0.00 0.00 0.00 0.00 0.00 0.00 0.00 0.00 0.00 0.00 0.00 0.00 0.00 0.00 0.00 0.00 0.00 0.00 0.00 0.00 0.00 0.00 0.00 0.00 0.00 0.00 0.00 0.00 0.00
0.00 0.00 0.00 0.00 0.00 0.00 0.00 0.00 0.00 0.00 0.00 0.00 0.00 0.00 0.00 0.00 0.00 0.00 0.00 0.00 0.00 0.00 0.00 0.00 0.00 0.00 0.00 0.00 0.00 0.00 0.00 0.00 0.00 0.00 0.00 0.00 0.00 0.00 0.00 0.00 0.00 0.00 0.00 0.00 0.00 0.00 0.00
0.00 0.00 0.00 0.00 0.00 0.00 0.00 0.00 0.00 0.00 0.00 0.00 0.00 0.00 0.00 0.00 0.00 0.00 0.00 0.00 0.00 0.00 0.00 0.00 0.00 0.00 0.00 0.00 0.00 0.00 0.00 0.00 0.00 0.00 0.00 0.00 0.00 0.00 0.00 0.00 0.00 0.00 0.00 0.00 0.00 0.00 0.00
0.00 0.00 0.00 0.00 0.00 0.00 0.00 0.00 0.00 0.00 0.00 0.00 0.00 0.00 0.00 0.00 0.00 0.00 0.00 0.00 0.00 0.00 0.00 0.00 0.00 0.00 0.00 0.00 0.00 0.00 0.00 0.00 0.00 0.00 0.00 0.00 0.00 0.00 0.00 0.00 0.00 0.00 0.00 0.00 0.00 0.00 0.00
0.00 0.00 0.00 0.00 0.00 0.00 0.00 0.00 0.00 0.00 0.00 0.00 0.00 0.00 0.00 0.00 0.00 0.00 0.00 0.00 0.00 0.00 0.00 0.00 0.00 0.00 0.00 0.00 0.00 0.00 0.00 0.00 0.00 0.00 0.00 0.00 0.00 0.00 0.00 0.00 0.00 0.00 0.00 0.00 0.00 0.00 0.00
0.00 0.00 0.00 0.00 0.00 0.00 0.00 0.00 0.00 0.00 0.00 0.00 0.00 0.00 0.00 0.00 0.00 0.00 0.00 0.00 0.00 0.00 0.00 0.00 0.00 0.00 0.00 0.00 0.00 0.00 0.00 0.00 0.00 0.00 0.00 0.00 0.00 0.00 0.00 0.00 0.00 0.00 0.00 0.00 0.00 0.00 0.00
0.00 0.00 0.00 0.00 0.00 0.00 0.00 0.00 0.00 0.00 0.00 0.00 0.00 0.00 0.00 0.00 0.00 0.00 0.00 0.00 0.00 0.00 0.00 0.00 0.00 0.00 0.00 0.00 0.00 0.00 0.00 0.00 0.00 0.00 0.00 0.00 0.00 0.00 0.00 0.00 0.00 0.00 0.00 0.00 0.00 0.00 0.00
0.00 0.00 0.00 0.00 0.00 0.00 0.00 0.00 0.00 0.00 0.00 0.00 0.00 0.00 0.00 0.00 0.00 0.00 0.00 0.00 0.00 0.00 0.00 0.00 0.00 0.00 0.00 0.00 0.00 0.00 0.00 0.00 0.00 0.00 0.00 0.00 0.00 0.00 0.00 0.00 0.00 0.00 0.00 0.00 0.00 0.00 0.00
0.00 0.00 0.00 0.00 0.00 0.00 0.00 0.00 0.00 0.00 0.00 0.00 0.00 0.00 0.00 0.00 0.00 0.00 0.00 0.00 0.00 0.00 0.00 0.00 0.00 0.00 0.00 0.00 0.00 0.00 0.00 0.00 0.00 0.00 0.00 0.00 0.00 0.00 0.00 0.00 0.00 0.00 0.00 0.00 0.00 0.00 0.00
0.00 0.00 0.00 0.00 0.00 0.00 0.00 0.00 0.00 0.00 0.00 0.00 0.00 0.00 0.00 0.00 0.00 0.00 0.00 0.00 0.00 0.00 0.00 0.00 0.00 0.00 0.00 0.00 0.00 0.00 0.00 0.00 0.00 0.00 0.00 0.00 0.00 0.00 0.00 0.00 0.00 0.00 0.00 0.00 0.00 0.00 0.00
0.00 0.00 0.00 0.00 0.00 0.00 0.00 0.00 0.00 0.00 0.00 0.00 0.00 0.00 0.00 0.00 0.00 0.00 0.00 0.00 0.00 0.00 0.00 0.00 0.00 0.00 0.00 0.00 0.00 0.00 0.00 0.00 0.00 0.00 0.00 0.00 0.00 0.00 0.00 0.00 0.00 0.00 0.00 0.00 0.00 0.00 0.00
0.00 0.00 0.00 0.00 0.00 0.00 0.00 0.00 0.00 0.00 0.00 0.00 0.00 0.00 0.00 0.00 0.00 0.00 0.00 0.00 0.00 0.00 0.00 0.00 0.00 0.00 0.00 0.00 0.00 0.00 0.00 0.00 0.00 0.00 0.00 0.00 0.00 0.00 0.00 0.00 0.00 0.00 0.00 0.00 0.00 0.00 0.00
0.00 0.00 0.00 0.00 0.00 0.00 0.00 0.00 0.00 0.00 0.00 0.00 0.00 0.00 0.00 0.00 0.00 0.00 0.00 0.00 0.00 0.00 0.00 0.00 0.00 0.00 0.00 0.00 0.00 0.00 0.00 0.00 0.00 0.00 0.00 0.00 0.00 0.00 0.00 0.00 0.00 0.00 0.00 0.00 0.00 0.00 0.00
MSLP
1020.09 1019.59 1019.11 1018.64 1018.14 1017.61 1017.06 1016.53 1015.95 1015.34 1014.83 1014.39 1013.93 1013.53 1013.14 1012.72 1012.27 1011.95 1011.40 1010.94 1010.50 1010.35 1010.24 1010.01 1009.73 1009.49 1009.23 1007.67 1004.20 1002.76 1002.81 1003.21 1003.61 1004.47 1004.59 1005.15 1007.96 1009.21 1009.88 1009.62 1009.26 1006.32 1003.88 1001.85 1000.82 999.78 999.67
1020.23 1019.69 1019.14 1018.58 1018.03 1017.49 1016.92 1016.33 1015.78 1015.21 1014.64 1014.11 1013.64 1013.22 1012.80 1012.43 1011.99 1011.52 1011.26 1010.78 1010.41 1010.03 1009.99 1009.80 1009.61 1009.57 1008.85 1005.79 1001.95 1002.34 1002.87 1003.22 1003.16 1003.70 1004.26 1006.35 1009.57 1008.71 1009.88 1009.12 1008.36 1005.80 1004.46 1002.17 1001.07 1000.25 999.59
1020.36 1019.77 1019.11 1018.43 1017.77 1017.17 1016.55 1015.93 1015.38 1014.83 1014.30 1013.86 1013.35 1012.82 1012.36 1011.99 1011.65 1011.28 1010.84 1010.59 1010.21 1009.74 1009.67 1009.52 1009.39 1009.22 1007.42 1003.44 1001.38 1002.02 1002.47 1002.72 1002.76 1002.71 1002.90 1006.41 1007.22 1006.46 1007.73 1007.73 1007.21 1005.14 1003.27 1001.60 1000.68 1000.41 1000.02
1020.42 1019.81 1019.15 1018.46 1017.78 1017.10 1016.41 1015.72 1015.11 1014.49 1013.91 1013.33 1012.86 1012.46 1011.98 1011.53 1011.20 1010.86 1010.59 1010.17 1009.84 1009.41 1009.21 1009.11 1009.08 1008.60 1005.45 1001.03 1000.89 1001.50 1001.87 1002.11 1002.01 1001.59 1001.98 1004.73 1005.34 1005.34 1006.31 1006.25 1006.61 1005.32 1003.98 1002.87 1000.62 1000.20 1000.72
1020.61 1019.92 1019.22 1018.47 1017.70 1016.97 1016.25 1015.52 1014.84 1014.23 1013.65 1013.03 1012.44 1012.01 1011.61 1011.14 1010.78 1010.53 1010.17 1009.63 1009.25 1008.91 1008.77 1008.85 1008.89 1007.74 1003.71 1000.82 1000.58 1000.50 1000.83 1001.25 1001.03 1001.00 1001.02 1002.00 1003.19 1005.47 1006.05 1006.93 1007.46 1006.09 1005.09 1003.48 1001.54 999.96 1000.43
1020.82 1020.09 1019.32 1018.50 1017.71 1016.95 1016.14 1015.32 1014.60 1013.88 1013.20 1012.57 1011.98 1011.54 1011.16 1010.80 1010.43 1010.16 1009.63 1009.12 1008.47 1008.52 1008.19 1008.03 1007.23 1006.32 1002.72 1000.53 999.95 999.89 1000.01 1000.33 1000.50 1000.53 1000.66 1001.41 1004.85 1006.71 1007.54 1008.64 1008.08 1006.88 1005.54 1003.59 1002.11 1001.22 1000.49
1020.92 1020.16 1019.38 1018.57 1017.73 1016.85 1015.98 1015.09 1014.21 1013.38 1012.71 1012.06 1011.44 1011.01 1010.65 1010.39 1010.18 1010.05 1009.25 1008.32 1008.32 1007.86 1007.06 1005.07 1003.80 1002.61 1000.72 999.68 999.43 999.53 999.57 999.98 1000.30 1000.67 1001.22 1001.42 1004.98 1007.51 1007.99 1006.11 1006.11 1006.26 1004.27 1003.07 999.76 998.31 999.33
1021.22 1020.47 1019.67 1018.79 1017.87 1016.94 1016.02 1015.11 1014.17 1013.21 1012.38 1011.71 1011.06 1010.60 1010.26 1010.05 1009.98 1009.96 1009.97 1007.98 1004.81 1003.40 1003.61 1002.85 1002.19 1001.61 1000.17 999.35 999.29 999.35 999.45 1000.03 1000.40 1000.84 1001.08 1001.54 1003.62 1004.76 1005.39 1004.36 1004.55 1003.37 1002.48 1000.71 998.84 998.15 998.60
1021.49 1020.65 1019.78 1018.91 1017.97 1016.99 1015.98 1015.00 1014.00 1013.05 1012.15 1011.40 1010.80 1010.32 1010.04 1009.82 1009.78 1009.93 1008.21 1005.56 1003.14 1002.50 1002.55 1000.95 1000.64 1000.33 999.58 999.20 999.26 999.10 999.35 999.60 1000.19 1000.81 1001.14 1001.40 1001.78 1003.23 1004.23 1002.80 1002.00 1000.75 1001.17 999.95 998.35 997.72 997.54
1021.65 1020.80 1019.92 1018.98 1018.04 1017.08 1016.04 1014.99 1013.89 1012.87 1012.01 1011.14 1010.53 1010.12 1009.81 1009.57 1009.82 1007.28 1005.98 1003.52 1002.81 1002.47 1002.34 1000.18 999.69 999.23 999.23 999.10 999.04 998.54 998.67 999.30 999.67 1000.12 1000.63 1000.72 1000.54 1001.31 1001.60 1001.04 1000.26 999.75 998.90 998.46 997.90 998.13 998.69
1021.91 1021.06 1020.19 1019.27 1018.29 1017.24 1016.16 1015.08 1013.98 1012.85 1011.87 1011.02 1010.29 1009.84 1009.60 1009.51 1008.75 1006.41 1003.74 1002.99 1002.69 1002.69 1001.86 998.76 998.53 997.61 998.10 998.90 998.44 998.12 997.86 998.64 999.38 999.90 1000.22 1000.14 999.90 999.73 1000.34 999.75 999.08 998.80 997.61 997.87 998.16 998.77 999.27
1022.08 1021.21 1020.33 1019.43 1018.42 1017.36 1016.28 1015.15 1014.03 1012.82 1011.73 1010.80 1009.98 1009.54 1009.11 1009.04 1008.20 1004.86 1003.62 1002.84 1002.69 1002.90 1000.26 998.40 998.10 998.05 998.37 998.41 998.59 998.06 997.89 998.36 998.79 999.52 999.72 999.51 998.81 998.75 998.21 998.11 997.92 997.69 997.85 997.94 998.56 999.11 1000.34
1022.34 1021.42 1020.48 1019.57 1018.62 1017.58 1016.49 1015.34 1014.17 1012.94 1011.57 1010.42 1009.48 1009.13 1009.13 1007.69 1005.63 1003.41 1003.11 1003.03 1003.20 1001.88 998.88 999.00 998.72 998.12 998.42 998.39 998.28 998.21 998.04 998.44 998.89 999.43 999.54 999.14 998.41 997.47 997.52 997.79 997.30 997.52 998.28 998.93 999.60 999.87 1000.54
1022.55 1021.70 1020.76 1019.78 1018.82 1017.83 1016.68 1015.46 1014.23 1012.91 1011.42 1009.80 1008.77 1008.30 1007.17 1006.21 1004.51 1004.19 1003.38 1003.61 1002.84 1001.01 1000.49 999.76 999.54 999.12 998.92 998.35 997.99 997.95 998.09 998.50 998.17 998.58 999.12 999.17 998.52 997.82 997.36 997.52 997.09 997.10 997.63 998.93 999.71 1000.07 1000.33
1022.85 1021.94 1021.01 1020.02 1018.97 1017.88 1016.73 1015.57 1014.16 1012.91 1011.44 1009.63 1007.77 1006.92 1006.24 1004.10 1003.84 1004.11 1004.12 1003.53 1002.13 1001.37 1001.46 1001.19 1000.49 1000.30 999.77 998.98 998.52 998.45 998.43 998.62 998.52 998.30 998.97 999.16 998.86 997.76 997.42 996.91 996.68 996.43 997.07 997.14 998.71 999.55 999.95
1023.13 1022.23 1021.24 1020.22 1019.15 1017.98 1016.85 1015.79 1014.55 1012.91 1011.39 1009.87 1008.56 1006.49 1004.43 1002.68 1002.60 1003.30 1003.88 1003.13 1002.09 1001.74 1001.85 1001.57 1001.54 1001.21 1001.17 1000.69 1000.27 999.87 999.45 999.40 999.33 999.60 999.45 999.93 999.90 999.24 997.94 997.65 996.24 996.84 996.45 997.33 998.84 1000.23 1000.44
1023.45 1022.57 1021.63 1020.62 1019.47 1018.28 1017.11 1015.96 1015.06 1013.58 1011.52 1009.24 1008.29 1006.00 1002.84 1002.26 1002.36 1003.25 1003.73 1002.75 1001.90 1001.85 1001.89 1002.14 1002.18 1002.30 1002.28 1002.02 1001.73 1001.31 1000.87 1000.39 1000.42 1000.35 1000.47 1001.00 1001.24 1000.99 1000.15 999.29 998.57 997.74 998.04 998.35 998.84 999.94 1000.25
1023.70 1022.86 1021.98 1021.05 1019.93 1018.77 1017.53 1016.35 1015.32 1014.41 1012.36 1010.05 1009.03 1005.93 1002.59 1002.18 1002.95 1003.01 1002.93 1002.53 1002.54 1002.19 1002.33 1002.49 1002.60 1003.09 1003.32 1003.22 1003.08 1002.84 1002.22 1001.56 1001.29 1001.34 1001.81 1002.25 1002.59 1002.61 1001.61 999.99 998.94 998.48 998.83 999.60 1000.41 1000.23 999.74
1023.94 1023.15 1022.32 1021.41 1020.42 1019.38 1018.20 1016.87 1015.58 1015.15 1014.88 1013.87 1010.51 1006.13 1002.50 1002.23 1003.36 1003.70 1003.44 1003.08 1002.66 1002.88 1003.43 1003.75 1003.97 1004.33 1004.43 1004.50 1004.39 1003.60 1003.10 1002.28 1002.49 1002.32 1002.45 1002.90 1003.64 1003.58 1002.66 1001.36 999.57 999.47 999.57 1000.09 1000.27 1000.10 1000.04
1024.15 1023.39 1022.65 1021.81 1020.96 1020.02 1018.90 1017.63 1016.14 1014.48 1014.08 1013.69 1010.96 1007.48 1005.24 1004.40 1004.47 1004.84 1004.72 1004.20 1003.85 1003.66 1004.32 1004.83 1005.20 1005.01 1005.03 1005.15 1005.01 1004.85 1004.36 1003.60 1003.68 1004.03 1003.89 1003.92 1004.39 1004.80 1004.62 1003.74 1002.56 1000.99 1000.57 1000.53 1001.02 1001.29 1000.80
1024.37 1023.76 1023.14 1022.38 1021.51 1020.57 1019.62 1018.50 1017.15 1015.26 1012.87 1012.96 1010.84 1009.61 1008.99 1007.45 1006.51 1005.91 1005.48 1005.23 1004.97 1005.11 1005.59 1005.83 1006.02 1006.02 1006.33 1006.52 1006.44 1006.23 1005.86 1005.27 1004.67 1004.72 1004.98 1005.13 1005.25 1005.18 1004.79 1004.01 1003.09 1002.08 1001.32 1001.04 1001.00 1000.79 1000.88
1024.59 1024.06 1023.38 1022.66 1021.93 1021.13 1020.28 1019.35 1018.27 1016.82 1014.01 1012.66 1012.89 1012.18 1010.88 1009.51 1007.69 1006.60 1006.31 1006.54 1006.23 1006.44 1006.83 1006.84 1007.00 1007.00 1007.19 1007.47 1007.45 1007.34 1007.31 1007.24 1006.69 1005.82 1005.93 1006.00 1005.88 1005.89 1005.53 1004.55 1003.65 1002.76 1001.81 1001.04 1000.79 1000.47 999.99
1024.84 1024.35 1023.73 1023.04 1022.41 1021.68 1020.92 1020.17 1019.41 1018.65 1016.77 1015.85 1014.75 1013.79 1012.58 1010.12 1008.68 1007.56 1007.58 1007.39 1007.32 1007.30 1007.23 1007.30 1007.33 1007.50 1007.62 1007.67 1007.63 1007.68 1007.58 1007.32 1007.02 1006.82 1006.58 1006.84 1006.58 1006.79 1006.11 1005.52 1004.45 1003.21 1002.13 1001.50 1000.94 1000.59 1000.31
1024.98 1024.54 1024.02 1023.37 1022.73 1022.10 1021.45 1020.77 1020.16 1019.80 1019.80 1018.97 1016.58 1015.28 1013.52 1011.59 1010.20 1009.25 1008.56 1008.07 1008.09 1008.23 1008.20 1007.75 1007.48 1007.46 1007.54 1007.43 1007.63 1007.43 1006.95 1006.39 1005.89 1005.68 1005.59 1006.07 1006.67 1006.92 1006.72 1006.20 1004.87 1003.36 1002.11 1001.71 1001.21 1000.64 1000.16
1025.11 1024.70 1024.24 1023.68 1023.05 1022.43 1021.82 1021.24 1020.67 1020.18 1019.92 1019.33 1017.47 1016.10 1015.02 1013.47 1011.78 1010.24 1009.67 1009.25 1009.05 1008.57 1008.06 1007.73 1007.30 1007.25 1007.36 1007.83 1008.10 1007.67 1006.96 1005.85 1005.19 1004.51 1004.08 1004.92 1005.80 1006.34 1006.70 1006.25 1004.94 1003.92 1002.62 1001.93 1001.83 1001.26 1001.42
1025.16 1024.76 1024.33 1023.83 1023.24 1022.69 1022.12 1021.59 1021.06 1020.51 1020.03 1019.19 1017.59 1016.42 1016.03 1014.80 1012.09 1011.44 1010.50 1009.88 1009.88 1009.51 1009.17 1008.51 1007.77 1007.36 1007.70 1008.29 1008.89 1008.84 1008.27 1007.29 1006.21 1005.46 1004.99 1005.06 1005.21 1006.32 1006.49 1005.97 1005.31 1004.00 1003.16 1002.43 1001.75 1002.13 1002.74
1025.16 1024.81 1024.39 1023.89 1023.38 1022.82 1022.27 1021.81 1021.33 1020.83 1020.38 1020.10 1018.22 1017.14 1016.49 1015.57 1012.69 1012.63 1011.79 1011.25 1010.91 1010.43 1010.30 1009.57 1009.19 1008.34 1008.11 1008.85 1009.29 1009.24 1008.75 1007.93 1007.64 1007.25 1007.46 1007.12 1006.91 1006.89 1006.85 1006.44 1005.50 1005.38 1004.70 1003.26 1003.65 1005.27 1004.21
1025.17 1024.74 1024.34 1023.92 1023.45 1022.93 1022.41 1021.91 1021.46 1021.04 1020.60 1020.26 1018.65 1017.42 1016.94 1016.02 1013.85 1012.66 1012.07 1012.08 1011.55 1011.03 1010.78 1010.26 1009.80 1009.54 1009.30 1009.76 1009.91 1010.03 1009.72 1009.59 1009.35 1008.97 1008.67 1008.58 1008.40 1008.39 1008.23 1007.48 1006.38 1005.98 1005.59 1006.67 1006.36 1005.42 1005.76
1025.02 1024.59 1024.18 1023.82 1023.41 1022.91 1022.45 1021.98 1021.51 1021.14 1020.80 1020.48 1019.01 1017.93 1017.47 1016.78 1014.09 1012.76 1011.89 1011.50 1011.35 1011.21 1011.24 1010.82 1010.78 1010.83 1010.55 1010.68 1010.98 1010.91 1011.01 1010.83 1010.48 1010.16 1009.50 1009.64 1010.27 1010.78 1010.27 1008.69 1007.45 1006.75 1007.35 1006.98 1007.19 1006.65 1005.63
Thickness
5751 5754 5757 5759 5762 5765 5768 5771 5774 5777 5780 5782 5784 5786 5789 5791 5794 5796 5801 5805 5808 5810 5810 5813 5816 5818 5821 5823 5838 5877 5876 5873 5871 5857 5846 5830 5802 5791 5773 5779 5784 5802 5828 5859 5861 5872 5870
5751 5754 5757 5760 5763 5766 5769 5773 5776 5779 5782 5785 5786 5788 5791 5793 5795 5798 5800 5805 5808 5811 5812 5814 5816 5817 5819 5814 5884 5881 5877 5871 5869 5860 5849 5822 5782 5801 5775 5786 5792 5824 5827 5849 5858 5860 5871
5751 5754 5758 5762 5766 5769 5772 5776 5779 5781 5784 5787 5789 5792 5794 5795 5797 5799 5802 5804 5808 5812 5813 5814 5815 5819 5823 5837 5887 5885 5879 5872 5874 5871 5856 5811 5811 5823 5815 5802 5818 5832 5828 5845 5853 5859 5860
5750 5754 5758 5762 5766 5769 5773 5777 5780 5783 5786 5790 5792 5794 5796 5798 5799 5801 5803 5805 5807 5812 5814 5815 5816 5819 5819 5888 5893 5883 5882 5874 5882 5886 5879 5853 5847 5841 5827 5832 5822 5819 5825 5799 5849 5863 5856
5749 5753 5757 5761 5766 5770 5774 5777 5781 5785 5788 5791 5795 5797 5798 5800 5802 5802 5804 5808 5810 5812 5814 5814 5813 5817 5824 5891 5873 5888 5889 5870 5881 5885 5887 5881 5863 5834 5829 5800 5782 5803 5785 5803 5827 5866 5855
5746 5751 5756 5761 5765 5769 5774 5778 5782 5786 5789 5793 5796 5799 5800 5801 5803 5803 5806 5809 5814 5813 5815 5817 5823 5810 5846 5851 5875 5885 5894 5888 5875 5876 5869 5863 5820 5801 5798 5774 5756 5766 5783 5803 5811 5833 5853
5745 5750 5754 5759 5764 5769 5774 5778 5783 5788 5792 5796 5799 5802 5803 5802 5801 5801 5806 5813 5806 5802 5809 5816 5827 5834 5855 5877 5892 5879 5889 5878 5874 5862 5834 5855 5793 5767 5776 5795 5797 5795 5806 5805 5853 5882 5870
5742 5746 5751 5756 5762 5767 5772 5777 5783 5789 5794 5798 5801 5803 5803 5802 5800 5797 5796 5805 5823 5836 5808 5835 5842 5848 5866 5879 5854 5868 5888 5853 5848 5827 5845 5836 5792 5803 5822 5829 5815 5822 5818 5822 5864 5883 5874
5738 5744 5749 5754 5760 5766 5771 5777 5783 5789 5794 5799 5802 5804 5804 5803 5800 5796 5806 5820 5849 5849 5807 5834 5849 5848 5856 5870 5848 5853 5870 5859 5840 5826 5831 5819 5834 5818 5811 5831 5831 5838 5819 5827 5851 5875 5886
5736 5741 5746 5752 5758 5763 5769 5776 5782 5789 5793 5799 5802 5804 5805 5805 5802 5820 5816 5842 5852 5851 5781 5818 5833 5851 5860 5863 5840 5877 5880 5859 5844 5825 5833 5829 5855 5820 5821 5830 5842 5822 5860 5863 5864 5845 5814
5731 5736 5742 5748 5754 5760 5766 5772 5779 5786 5793 5798 5803 5806 5807 5806 5809 5816 5840 5853 5853 5835 5741 5838 5841 5886 5870 5844 5853 5858 5887 5863 5831 5831 5833 5822 5836 5838 5813 5832 5851 5838 5872 5862 5862 5844 5837
5727 5733 5739 5744 5750 5756 5762 5769 5775 5783 5791 5798 5804 5808 5811 5810 5813 5837 5851 5854 5841 5778 5758 5828 5849 5840 5838 5849 5848 5863 5864 5872 5865 5839 5839 5836 5865 5856 5857 5867 5868 5874 5857 5859 5853 5841 5793
5723 5729 5735 5741 5746 5752 5758 5765 5772 5780 5790 5800 5808 5811 5810 5819 5824 5855 5855 5833 5776 5762 5850 5828 5829 5846 5835 5832 5841 5843 5842 5833 5817 5800 5800 5831 5843 5867 5870 5844 5866 5860 5835 5783 5781 5782 5780
5717 5723 5729 5736 5742 5748 5754 5762 5770 5780 5791 5804 5813 5817 5826 5832 5845 5848 5839 5798 5764 5809 5809 5836 5832 5834 5825 5842 5845 5851 5842 5824 5849 5836 5812 5799 5792 5842 5863 5849 5839 5841 5835 5785 5769 5773 5789
5711 5717 5723 5730 5738 5745 5752 5760 5770 5779 5790 5804 5820 5827 5829 5847 5850 5844 5811 5772 5787 5805 5817 5812 5821 5809 5814 5839 5843 5846 5839 5829 5843 5850 5814 5798 5798 5854 5860 5865 5861 5843 5825 5855 5818 5822 5791
5705 5711 5718 5725 5733 5742 5749 5756 5766 5778 5790 5802 5811 5822 5831 5860 5860 5837 5796 5778 5804 5822 5819 5817 5793 5807 5788 5803 5806 5810 5816 5832 5826 5833 5834 5813 5780 5830 5851 5859 5871 5852 5872 5815 5805 5778 5768
5697 5703 5710 5718 5726 5736 5744 5752 5760 5771 5788 5806 5812 5809 5847 5864 5855 5816 5778 5797 5816 5828 5826 5806 5796 5794 5797 5796 5799 5795 5801 5819 5822 5819 5823 5808 5790 5789 5818 5818 5815 5829 5817 5832 5822 5801 5774
5690 5696 5703 5710 5718 5727 5737 5746 5755 5762 5779 5796 5799 5791 5851 5858 5801 5807 5797 5815 5811 5818 5822 5812 5812 5800 5791 5795 5788 5786 5789 5803 5822 5816 5794 5802 5783 5758 5782 5827 5845 5841 5824 5814 5776 5785 5801
5681 5687 5694 5702 5710 5718 5727 5738 5749 5753 5755 5759 5782 5802 5849 5846 5782 5786 5804 5807 5819 5808 5801 5798 5791 5791 5791 5779 5767 5787 5791 5815 5806 5800 5794 5797 5760 5733 5753 5788 5822 5807 5813 5809 5808 5806 5786
5672 5677 5684 5692 5700 5708 5717 5728 5740 5755 5759 5763 5778 5778 5801 5811 5808 5789 5784 5788 5788 5808 5794 5791 5781 5786 5779 5771 5775 5766 5773 5796 5795 5785 5785 5787 5766 5746 5719 5745 5775 5780 5796 5805 5790 5762 5774
5666 5670 5674 5681 5689 5698 5706 5715 5727 5744 5764 5765 5778 5768 5771 5762 5775 5785 5787 5784 5780 5770 5780 5777 5766 5768 5756 5744 5748 5749 5759 5766 5778 5777 5769 5759 5735 5750 5754 5763 5770 5776 5782 5786 5779 5782 5765
5661 5664 5669 5674 5680 5688 5695 5703 5712 5726 5750 5760 5745 5743 5755 5755 5776 5780 5771 5761 5765 5763 5759 5754 5748 5755 5749 5735 5738 5732 5738 5735 5738 5757 5745 5747 5721 5730 5724 5752 5757 5751 5768 5778 5781 5787 5788
5656 5659 5663 5668 5673 5679 5685 5691 5698 5705 5721 5727 5735 5741 5739 5753 5764 5765 5757 5757 5756 5759 5761 5758 5753 5743 5736 5741 5748 5746 5744 5743 5740 5733 5729 5722 5716 5705 5696 5720 5726 5716 5746 5755 5763 5775 5774
5650 5653 5657 5661 5666 5670 5675 5681 5686 5689 5690 5696 5714 5720 5725 5730 5745 5747 5754 5758 5751 5745 5737 5748 5749 5738 5747 5756 5749 5746 5745 5745 5745 5741 5740 5717 5706 5696 5684 5694 5670 5725 5753 5750 5748 5763 5773
5643 5646 5649 5652 5657 5662 5666 5670 5675 5680 5682 5686 5701 5707 5708 5707 5729 5739 5741 5740 5740 5743 5742 5742 5748 5749 5750 5737 5715 5710 5715 5729 5735 5745 5741 5731 5707 5682 5671 5669 5694 5710 5729 5731 5724 5736 5753
5635 5638 5641 5644 5648 5652 5657 5661 5665 5669 5673 5680 5691 5701 5697 5697 5721 5728 5728 5734 5721 5720 5723 5729 5742 5745 5741 5715 5698 5683 5675 5691 5697 5708 5725 5716 5710 5681 5674 5662 5659 5698 5719 5734 5739 5704 5729
5627 5629 5632 5635 5639 5643 5648 5652 5656 5660 5663 5666 5679 5687 5688 5685 5714 5711 5708 5708 5717 5715 5705 5714 5715 5718 5728 5697 5683 5678 5678 5695 5670 5668 5659 5666 5671 5665 5667 5659 5678 5687 5700 5724 5686 5674 5715
5618 5620 5622 5625 5629 5633 5637 5641 5645 5649 5652 5655 5668 5676 5677 5680 5695 5707 5711 5701 5702 5703 5694 5701 5698 5697 5692 5678 5675 5668 5664 5662 5655 5659 5651 5648 5644 5648 5650 5650 5654 5688 5689 5661 5674 5693 5692
5608 5611 5614 5616 5618 5622 5626 5630 5634 5637 5641 5643 5655 5663 5666 5669 5687 5702 5707 5709 5705 5701 5691 5692 5684 5678 5678 5666 5661 5660 5649 5647 5643 5633 5660 5638 5635 5620 5631 5643 5665 5675 5662 5673 5668 5668 5682